TIME,DELAY(SENSOR),PRES,T(CTD),SAL,OXYGEN,RAWTEMP,T(OPTODE),TCPHASE,FLUOR,BETA(BETA700),BETA(BETA412),BETA(BETA440),CDOM,C(CSC),ED(ED411.90),ED(ED443.80),ED(ED489.40),ED(ED554.70),LU(LU412.20),LU(LU443.80),LU(LU489.40),LU(LU555.00),COMP,TILTX,TILTX(TILTY),CHECK
1355068589,5804,497.5100097656250000,17.2129993438720700,36.3944015502929700,215.8549957275390600,181.1428985595703000,17.2168598175048830,32.0597496032714840,50,99,53,58,56,12936,2146958784,2147515300,2147266048,2147464420,2147088256,2146957705,2147657325,2147129280,2324,-1,8,51409
1355068716,5809,485.5899963378906000,17.3038997650146500,36.4150009155273440,218.6813049316406200,178.0496063232422000,17.3101596832275400,31.8666591644287100,50,101,53,58,56,12935,2146957275,2147511972,2147263716,2147463049,2147085714,2146951305,2147658605,2147130642,1783,-2,8,50479
1355068845,5806,473.5799865722656000,17.4158000946044920,36.4376983642578100,221.6454010009765600,174.6855926513672000,17.4116401672363280,31.6650505065917970,50,99,53,57,57,12935,2146958070,2147511332,2147263643,2147462930,2147088064,2146960118,2147655241,2147126116,692,-1,8,30535
1355068972,5807,461.7699890136719000,17.5300998687744140,36.4597015380859400,223.9181976318359400,170.7415924072265600,17.5306301116943360,31.4938907623291000,50,98,53,58,56,12934,2146957193,2147513508,2147265782,2147461019,2147086491,2146956873,2147656713,2147131081,235,-1,8,45071
1355069087,5804,451.0000000000000000,17.6291999816894530,36.4785003662109400,225.5807952880859400,167.3287963867187500,17.6336193084716800,31.3625907897949220,51,100,54,58,56,12933,2146958436,2147512685,2147266614,2147461659,2147081517,2146956653,2147657910,2147128457,2843,-1,8,57935
1355069204,5808,440.3699951171875000,17.7180995941162100,36.4956016540527340,227.0214996337890600,164.3354949951172000,17.7239608764648440,31.2493000030517580,50,100,54,58,56,12933,2146957933,2147515254,2147264941,2147457728,2147087131,2146957796,2147655122,2147127771,1575,-1,8,62414
1355069331,5809,428.9299926757812500,17.8145008087158200,36.5130996704101560,228.8883056640625000,161.4739990234375000,17.8103408813476560,31.1168994903564450,50,99,54,58,56,12934,2146957686,2147512329,2147265636,2147460708,2147086765,2146959268,2147650221,2147126784,964,-1,8,15828
1355069446,5806,418.7799987792969000,17.8801994323730470,36.5251998901367200,229.9676971435547000,159.3600006103515600,17.8741607666015620,31.0349693298339840,50,99,53,57,56,12933,2146958454,2147515401,2147266029,2147458486,2147085394,2146954404,2147656658,2147128777,3364,-1,8,24920
1355069576,5805,407.4500122070312500,17.9477996826171880,36.5373992919921900,231.0234069824218800,156.9761962890625000,17.9461402893066400,30.9507904052734380,50,100,54,58,55,12929,2146956754,2147515008,2147268516,2147456237,2147087698,2146952530,2147647378,2147131684,2126,-1,8,14543
1355069703,5809,396.2099914550781000,17.9778995513916000,36.5402984619140600,231.3981933593750000,156.0760040283203000,17.9733200073242200,30.9200096130371100,50,99,54,58,56,12932,2146956754,2147513545,2147264777,2147457179,2147088795,2146958793,2147648045,2147129856,1855,-1,8,14870
1355069820,5804,385.6199951171875000,18.0198001861572270,36.5410003662109400,228.7967071533203000,154.7937927246093800,18.0120391845703120,31.0317096710205080,50,99,52,58,56,12927,2146959021,2147513572,2147265216,2147457773,2147089225,2146960841,2147650624,2147130496,1470,-2,8,16532
1355069947,5803,374.1700134277344000,18.0634002685546880,36.5472984313964840,227.4001007080078000,153.0482025146484400,18.0647602081298830,31.0777702331542970,50,100,53,56,55,12929,2146958637,2147514770,2147267126,2147457883,2147081590,2146956086,2147650121,2147128064,689,-1,8,55299
1355070074,5805,362.7600097656250000,18.1595993041992200,36.5648994445800800,230.6298065185547000,150.1067962646484400,18.1536102294921880,30.8779106140136720,51,101,54,57,56,12928,2146961024,2147511762,2147265261,2147458340,2147082788,2146958345,2147651382,2147128292,3267,-1,8,63152
1355070192,5806,352.3999938964844000,18.2008991241455080,36.5726013183593750,231.7377014160156200,148.6961975097656200,18.1962299346923830,30.8044109344482420,50,99,54,57,56,12930,2146957083,2147514980,2147263378,2147456521,2147083968,2146958281,2147652077,2147128594,2196,-1,9,34691
1355070319,5803,341.3900146484375000,18.2511997222900400,36.5774002075195300,231.3318023681640600,147.0023956298828000,18.2474098205566400,30.8019294738769530,50,101,53,57,55,12929,2146957796,2147514742,2147267108,2147459081,2147075730,2146953472,2147652736,2147129682,2057,-2,8,31413
1355070448,5808,330.5899963378906000,18.3118000030517580,36.5834999084472660,230.4824981689453000,144.9981994628906200,18.3079700469970700,30.8165798187255860,50,98,53,57,56,12930,2146957842,2147517549,2147263661,2147454509,2147086034,2146955126,2147649270,2147125357,1795,-2,8,6376
1355070587,5807,319.5400085449219000,18.3906002044677730,36.5884017944335940,229.3283996582031200,142.4698944091797000,18.3843803405761720,30.8397502899169920,51,100,53,58,56,12928,2146959835,2147513965,2147264548,2147455552,2147086436,2146956672,2147652342,2147129901,836,-1,8,63939
1355070726,5805,308.4100036621094000,18.5016002655029300,36.5965995788574200,227.3401031494140600,138.6683959960937500,18.4993000030517580,30.8876590728759770,51,98,54,59,55,12929,2146955510,2147513965,2147262592,2147453979,2147079990,2146962477,2147650633,2147126491,1050,-1,8,2892
1355070856,5805,297.8500061035156000,18.5694007873535160,36.5890998840332000,226.7366027832031200,136.4971923828125000,18.5649509429931640,30.8888492584228500,50,98,53,58,55,12928,2146958262,2147514715,2147266569,2147451904,2147079122,2146957769,2147653796,2147129645,1016,-2,8,32554
1355070995,5807,286.6700134277344000,18.6693000793457030,36.5920982360839840,227.8905029296875000,133.2113037109375000,18.6643295288085940,30.7877693176269530,50,97,54,58,56,12928,2146957961,2147512246,2147264859,2147455780,2147073920,2146955958,2147655277,2147131346,25,-1,9,272
1355071136,5805,275.4200134277344000,18.6844005584716800,36.5611991882324200,230.7778015136718800,132.4938964843750000,18.6860294342041000,30.6357097625732420,50,99,53,58,54,12927,2146955602,2147513426,2147266614,2147455012,2147085760,2146960740,2147659538,2147128713,2484,-2,8,10027
1355071275,5803,264.6199951171875000,18.7992000579834000,36.5682983398437500,231.5030059814453000,128.9671936035156200,18.7927207946777340,30.5534400939941400,51,100,54,56,56,12927,2146956169,2147516123,2147264868,2147455652,2147081819,2146966235,2147660141,2147129398,1169,-2,8,22843
1355071423,5806,252.8699951171875000,18.8377990722656250,36.5637016296386700,234.0733032226562500,127.4869995117187500,18.8375091552734380,30.4093608856201170,50,98,53,58,56,12927,2146954422,2147516854,2147266066,2147451181,2147078610,2146970029,2147668461,2147129974,843,-1,8,38914
1355071538,5807,241.6900024414062500,18.9269008636474600,36.5550003051757800,236.5397949218750000,124.5289001464843800,18.9270401000976560,30.2527408599853500,51,98,54,57,54,12925,2146956041,2147513490,2147266212,2147450605,2147087844,2146968676,2147678902,2147131099,286,-1,9,31552
1355071653,5805,230.5000000000000000,19.0527992248535160,36.5751991271972660,236.0354003906250000,120.2574996948242200,19.0563602447509770,30.2203292846679700,50,101,53,57,56,12924,2146958098,2147516315,2147265042,2147453952,2147090157,2146976192,2147686866,2147130276,3502,-1,8,6257
1355071771,5805,219.3200073242187500,19.0988998413085940,36.5646018981933600,238.5469970703125000,119.0128021240234400,19.0940608978271500,30.0854797363281250,50,98,53,58,55,12926,2146954779,2147516580,2147263908,2147451693,2147082989,2146985033,2147699529,2147131392,2593,-1,8,7503
1355071898,5803,207.7299957275390600,19.1382007598876950,36.5567016601562500,240.3966979980468800,117.7333984375000000,19.1327991485595700,29.9824199676513670,50,100,54,58,55,12924,2146955218,2147514587,2147266816,2147448530,2147088256,2147000265,2147724845,2147133915,2122,-2,8,34352
1355072034,5804,196.0800018310547000,19.2479000091552730,36.5625991821289060,239.3966979980468800,114.0112991333007800,19.2455596923828120,29.9802303314209000,51,102,53,58,54,12924,2146954870,2147518820,2147265728,2147450450,2147088009,2147016667,2147756562,2147137161,1065,-2,8,51462
1355072089,5807,191.9199981689453000,19.3062000274658200,36.5718002319335940,239.2604064941406200,112.1881027221679700,19.3008003234863280,29.9626903533935550,50,100,54,58,55,12925,2146954322,2147514971,2147265746,2147448091,2147091986,2147021933,2147764425,2147139958,644,-2,9,28963
1355072144,5807,187.8500061035156200,19.3472003936767580,36.5745010375976560,239.0204925537109400,110.8534011840820300,19.3412494659423830,29.9565105438232420,51,102,55,58,55,12924,2146957568,2147518125,2147265627,2147449069,2147093622,2147033261,2147790016,2147138386,378,-1,9,46058
1355072199,5809,183.9100036621093800,19.3862991333007800,36.5777015686035160,238.1210937500000000,109.3419036865234400,19.3870601654052730,29.9788608551025400,50,100,53,57,55,12919,2146955922,2147515026,2147270482,2147449344,2147092086,2147040237,2147801362,2147142656,3563,-1,9,59579
1355072254,5806,180.0800018310547000,19.4923000335693360,36.5900001525878900,237.4049072265625000,106.0523986816406200,19.4867897033691400,29.9696693420410160,51,100,53,58,55,12921,2146954450,2147517312,2147268251,2147449371,2147091236,2147034752,2147798235,2147139968,3358,-1,8,55956
1355072345,5807,174.4299926757812500,19.5823993682861330,36.5979003906250000,238.6215972900390600,102.8595962524414000,19.5836296081542970,29.8709297180175780,52,102,53,57,55,12921,2146954724,2147515218,2147266907,2147447497,2147091108,2147041088,2147789330,2147134774,103,-2,8,37161
1355072424,5804,170.3399963378906200,19.7467002868652340,36.6237983703613300,238.1885986328125000,97.9368667602539000,19.7329807281494140,29.8272991180419920,52,102,53,58,55,12917,2146957293,2147511744,2147268873,2147447341,2147101019,2147065746,2147826121,2147139172,3260,-1,8,60840
1355072503,5805,166.2799987792968800,19.8334007263183600,36.6371994018554700,235.5419006347656200,95.2374191284179700,19.8149204254150400,29.9165191650390620,54,100,53,57,56,12919,2146955318,2147513938,2147266870,2147446509,2147102985,2147073837,2147839808,2147141970,3132,-2,9,61666
1355072582,5803,162.0500030517578000,19.8897991180419920,36.6343994140625000,235.6649932861328000,92.8274078369140600,19.8880901336669920,29.8793106079101560,56,101,53,58,56,12917,2146956928,2147515565,2147267026,2147448832,2147106075,2147086921,2147862290,2147145389,2776,-1,8,12341
1355072652,5807,158.2299957275390600,19.9964008331298830,36.6445999145507800,235.6396026611328000,89.5240097045898400,19.9884204864501950,29.8377208709716800,56,103,54,57,55,12916,2146955556,2147519360,2147268781,2147447222,2147108160,2147110226,2147894107,2147145673,3457,-1,9,37615
1355072719,5802,154.6399993896484400,20.0436000823974600,36.6375007629394500,237.6701049804687500,87.8218078613281200,20.0401306152343750,29.7204208374023440,61,104,54,58,55,12906,2146958912,2147517458,2147265636,2147445906,2147105856,2147077888,2147828946,2147141549,3504,-1,8,9339
1355072786,5802,151.1499938964843800,20.1518993377685550,36.6511001586914060,237.7673034667968800,84.4648971557617200,20.1421508789062500,29.6723899841308600,64,102,52,58,55,12910,2146958281,2147516288,2147265993,2147446893,2147111570,2147092580,2147850989,2147140800,3156,-2,9,15197
1355072865,5806,147.2100067138672000,20.2740001678466800,36.6717987060546900,234.8876037597656200,80.6157836914062500,20.2591705322265620,29.7578907012939450,63,102,52,58,55,12912,2146956297,2147520704,2147268608,2147446957,2147120475,2147135232,2147920603,2147148123,2683,-2,9,28760
1355072946,5805,143.3200073242187500,20.2840003967285160,36.6543006896972660,235.5104980468750000,80.0015029907226600,20.2778491973876950,29.7205696105957030,67,103,53,58,56,12907,2146961874,2147528649,2147285046,2147445211,2147170916,2147410934,2148396763,2147178861,2504,-2,9,63770
1355073025,5804,139.6000061035156200,20.3584003448486330,36.6483001708984400,240.6298065185547000,77.5864715576171900,20.3513107299804700,29.4514999389648440,73,105,53,57,55,12902,2146962157,2147525778,2147283428,2147445677,2147171794,2147389403,2148311798,2147175908,2839,-1,9,32734
1355073116,5807,135.7200012207031200,20.4659996032714840,36.6481018066406250,243.6640014648437500,73.7707672119140600,20.4674091339111330,29.2644901275634770,76,106,54,58,56,12898,2146956982,2147530048,2147285540,2147445796,2147185453,2147439058,2148399734,2147180342,2773,-2,8,11818
1355073219,5804,131.9700012207031200,20.6723003387451170,36.6809997558593750,242.8157043457031200,67.5712432861328100,20.6561794281005860,29.2236309051513670,76,109,53,59,55,12892,2146959049,2147532278,2147287341,2147445750,2147202651,2147455643,2148401078,2147181293,2456,-2,9,58082
1355073349,5811,127.9400024414062500,20.8129005432128900,36.7038993835449200,235.4792938232422000,62.8579292297363300,20.7997894287109380,29.5013198852539060,77,108,54,56,55,12890,2146959369,2147533156,2147293824,2147443227,2147235081,2147554121,2148539730,2147189595,2691,-2,9,54888
1355073488,5807,124.4000015258789000,20.9146003723144530,36.6913986206054700,236.6338958740234400,59.7097206115722660,20.8957691192626950,29.4070396423339840,80,108,52,58,54,12887,2146961508,2147527798,2147278400,2147443154,2147188562,2147320384,2148123044,2147165458,2222,-2,9,12564
1355073648,5804,119.5999984741211000,20.9920005798339840,36.6917991638183600,237.4916992187500000,56.8256683349609400,20.9837303161621100,29.3302192687988280,82,109,53,58,55,12885,2146963867,2147536740,2147299648,2147443328,2147294710,2147687414,2148673819,2147205942,2900,-2,9,44449
1355073739,5807,115.9199981689453100,21.1853008270263670,36.6717987060546900,241.9371948242187500,50.7722702026367200,21.1684703826904300,29.0493907928466800,90,111,53,57,55,12880,2146969389,2147549001,2147323190,2147443346,2147421074,2148069074,2149211931,2147247872,165,-2,8,60161
1355073866,5807,112.3600006103515600,21.3614997863769530,36.6801986694335940,246.1737060546875000,44.7275314331054700,21.3531093597412100,28.7833900451660160,92,116,54,57,54,12870,2146968859,2147549988,2147321234,2147439926,2147431277,2148013558,2149103588,2147238253,541,-2,8,3259
1355074004,5806,107.9899978637695300,21.7119998931884770,36.6692008972168000,241.2765960693359400,33.1832885742187500,21.7062091827392580,28.8566894531250000,92,120,54,59,55,12850,2146976960,2147564672,2147345782,2147442514,2147590948,2148378541,2149561435,2147277220,522,-2,9,55949
1355074131,5805,104.2399978637695300,22.0247001647949220,36.6958999633789060,235.9199981689453000,23.2849903106689450,22.0094890594482420,28.9768009185791000,83,121,55,58,55,12839,2146982080,2147571977,2147346203,2147442633,2147704768,2148590628,2149775030,2147295369,2825,-2,9,27017
1355074270,5802,99.1999969482421900,22.1669006347656250,36.7122001647949200,231.4156036376953000,18.4794292449951170,22.1569099426269530,29.1267395019531250,76,136,53,60,55,12844,2146996955,2147594112,2147371254,2147442294,2148005869,2149179803,2150425984,2147350765,2131,-2,9,60928
1355074325,5806,96.6299972534179700,22.3866996765136720,36.5107994079589840,235.5055999755859400,12.3518800735473630,22.3450603485107420,28.8579502105712900,79,124,55,60,55,12836,2146998445,2147606994,2147391698,2147441490,2148186688,2149529014,2150826761,2147382747,1771,-1,8,14289
1355074380,5801,95.6900024414062500,22.4330005645751950,36.4678993225097660,238.7584991455078000,10.2802801132202150,22.4087200164794920,28.6826305389404300,79,126,53,59,54,12842,2147005174,2147609874,2147407862,2147439725,2148218102,2149554953,2150865645,2147387894,1029,-2,9,9997
1355074699,5807,93.0199966430664000,22.4375000000000000,36.4623985290527340,251.0209960937500000,9.4905490875244140,22.4329891204834000,28.1314792633056640,81,121,54,60,52,12837,2147007862,2147602761,2147383414,2147439917,2148286253,2149429833,2150480146,2147357248,3586,-2,9,34812
1355074766,5807,91.1699981689453100,22.4358997344970700,36.4608993530273440,251.3529968261718800,9.4830751419067380,22.4332199096679700,28.1170997619628900,81,121,54,59,53,12839,2147018706,2147622692,2147401444,2147437878,2148563922,2149921444,2151005632,2147406765,81,-2,9,23634
1355074857,5808,88.0699996948242200,22.4493999481201170,36.4640998840332000,251.7030029296875000,8.8873834609985350,22.4515304565429700,28.0948390960693360,83,129,53,59,53,12832,2147036882,2147648530,2147446235,2147441362,2149019830,2150743405,2151964598,2147492425,3545,-2,9,56892
1355074912,5805,85.3600006103515600,22.4636001586914060,36.4654006958007800,251.9122009277343800,8.5958814620971680,22.4604892730712900,28.0823802947998050,82,122,54,60,53,12830,2147057142,2147680941,2147474496,2147441124,2149516672,2151608146,2152917741,2147570432,3266,-1,9,45036
1355074967,5805,82.4300003051757800,22.4500007629394530,36.4561996459960940,252.1401062011718800,8.9149208068847660,22.4506893157959000,28.0765209197998050,83,124,54,60,53,12822,2147060544,2147677696,2147464502,2147438546,2149661193,2151557366,2152590125,2147558107,3185,-1,8,19948
1355075022,5805,79.3700027465820300,22.4435005187988280,36.4528007507324200,252.1385955810547000,9.2451715469360350,22.4405307769775400,28.0806694030761720,85,122,53,58,52,12825,2147111579,2147762788,2147572827,2147451236,2150959972,2153967469,2155381522,2147808786,2986,-2,9,4835
1355075077,5806,76.2399978637695300,22.4304008483886720,36.4390983581543000,252.0643005371093800,9.6120090484619140,22.4292602539062500,28.0884895324707030,89,119,54,59,54,12828,2147144402,2147811730,2147634669,2147452690,2151873490,2155485988,2157082349,2147974272,2662,-2,9,51620
1355075132,5804,73.0699996948242200,22.4437999725341800,36.4347000122070300,251.8462982177734400,9.1991453170776370,22.4419498443603500,28.0925807952880860,91,128,54,60,53,12820,2147125156,2147768082,2147574354,2147448402,2151330413,2154158180,2155313398,2147832009,2497,-1,9,40952
1355075190,5801,69.7600021362304700,22.4570999145507800,36.4291000366210940,251.5630950927734400,8.7642517089843750,22.4553203582763670,28.0991706848144530,93,127,54,59,53,12803,2147220297,2147909915,2147757339,2147459446,2153594075,2158041600,2159675172,2148277449,2383,-1,9,54623
1355075245,5807,66.6600036621093800,22.4818000793457030,36.4262008666992200,251.7691955566406200,7.8267040252685550,22.4841403961181640,28.0788707733154300,86,130,54,59,52,12799,2147259145,2147954962,2147809929,2147465188,2154373869,2159101924,2160678098,2148400630,2655,-2,9,48144
1355075300,5803,63.7000007629394500,22.5028991699218750,36.4261016845703100,252.3376007080078000,7.2776288986206055,22.5010204315185550,28.0478401184082030,82,128,54,60,51,12786,2147303862,2148013558,2147878445,2147470098,2155381732,2160474752,2161994395,2148550756,2842,-2,9,15273
1355075355,5806,60.7599983215332000,22.5144004821777340,36.4267997741699200,252.5350036621093800,6.8798131942749020,22.5132598876953120,28.0345592498779300,80,126,54,60,53,12792,2147362651,2148091602,2147952694,2147473938,2156749101,2162415881,2163893833,2148763885,2586,-2,9,35187
1355075410,5802,57.8100013732910160,22.5196990966796880,36.4277992248535160,252.8256072998047000,6.7021970748901370,22.5187206268310550,28.0200691223144530,77,129,55,60,53,12790,2147423369,2148170075,2148036032,2147483382,2158277165,2164471862,2165829769,2149006665,2353,-2,9,5581
1355075465,5805,54.7799987792968750,22.5216999053955080,36.4278984069824200,252.9559020996093800,6.6190929412841800,22.5212802886962900,28.0134296417236330,77,129,55,59,52,12790,2147511661,2148277019,2148152009,2147490605,2160323867,2167281005,2168495149,2149352969,2239,-2,9,49011
1355075610,5805,47.9199981689453100,22.5258007049560550,36.4267005920410160,253.2225036621093800,6.5102219581604000,22.5246200561523440,28.0007896423339840,75,127,55,61,52,12783,2147775808,2148613504,2148560850,2147535661,2166348443,2175312649,2176188489,2150477302,1518,-1,9,49210
1355075645,5806,46.0800018310546900,22.5242996215820300,36.4275016784668000,253.0397949218750000,6.5054030418396000,22.5247707366943360,28.0083007812500000,75,126,55,59,52,12778,2147845138,2148698898,2148668845,2147559213,2167876434,2177139940,2177814125,2150754605,1344,-1,9,3573
1355075679,5802,44.2700004577636700,22.5268993377685550,36.4272994995117200,253.1515045166015600,6.3949580192565920,22.5281696319580080,28.0023708343505860,73,126,54,58,52,12778,2147934235,2148805330,2148817069,2147594422,2169843328,2179596196,2180014125,2151153526,1230,-2,9,8022
1355075713,5802,42.4799995422363300,22.5272006988525400,36.4269981384277340,253.1820068359375000,6.3521771430969240,22.5294895172119140,28.0004501342773440,74,126,53,59,53,12778,2148002368,2148890441,2148945837,2147642368,2171421513,2181370962,2181389248,2151454701,1092,-2,9,37558
1355075747,5806,40.6500015258789060,22.5279006958007800,36.4266014099121100,253.3509979248047000,6.3291640281677250,22.5301895141601560,27.9930000305175780,73,127,54,59,52,12775,2148135716,2149051638,2149181110,2147729334,2174255670,2185007424,2184736713,2152052544,943,-2,9,58131
1355075781,5805,38.8199996948242200,22.5279006958007800,36.4264984130859400,253.2830047607422000,6.3041830062866210,22.5309600830078120,27.9955692291259770,73,127,55,60,53,12781,2148259712,2149193289,2149383506,2147829056,2177053595,2188481170,2187797860,2152676644,771,-1,9,32387
1355075830,5807,36.1899986267089840,22.5279998779296880,36.4269981384277340,253.4002990722656200,6.2496991157531740,22.5326404571533200,27.9899902343750000,73,131,54,59,55,12776,2148448996,2149411949,2149639817,2147934637,2181546916,2194231314,2193000128,2153670372,590,-1,9,10592
1355075864,5805,34.3400001525878900,22.5300006866455080,36.4266014099121100,253.4109039306640600,6.1971812248229980,22.5342502593994140,27.9889202117919920,72,125,55,60,51,12775,2148531986,2149490925,2149726253,2148000393,2183312310,2195865462,2193951442,2154121069,630,-2,9,17854
1355075898,5806,32.5200004577636700,22.5298995971679700,36.4266014099121100,253.5966033935547000,6.1613831520080570,22.5353507995605470,27.9806404113769530,71,128,54,59,51,12777,2148678070,2149644443,2149911378,2148100516,2186847606,2199845659,2197387858,2155035904,679,-1,9,16682
1355075932,5806,30.6800003051757800,22.5296993255615230,36.4269981384277340,253.5933074951172000,6.1351242065429690,22.5361595153808600,27.9804801940917970,71,127,56,59,51,12777,2148873563,2149866806,2150180690,2148238555,2190951917,2204923373,2202010560,2156122313,669,-1,9,41969
1355075979,5805,28.2099990844726560,22.5312004089355470,36.4261016845703100,253.6690979003906200,6.0785741806030270,22.5379009246826170,27.9764900207519530,70,127,55,58,55,12774,2149160950,2150170605,2150463881,2148326116,2197893220,2213033664,2208873097,2157868790,468,-2,9,9413
1355076013,5803,26.4599990844726560,22.5305004119873050,36.4267997741699200,253.7440032958984400,6.0493650436401370,22.5387992858886720,27.9730091094970700,67,125,54,60,53,12766,2149294802,2150290560,2150432594,2148196790,2201998189,2217623277,2212459940,2159012370,247,-2,8,2089
